Total_Precipitation_Accumulation
0.02 0.03 0.04 0.05 0.67 1.83 3.00 1.84 2.51 2.76 2.69 2.36 1.51 2.40 3.58 1.74 1.81 2.12 2.38 1.75 2.09 0.66 0.93 0.33 0.16 0.20 1.46 0.63 0.53 0.24 0.17 0.32 0.24 1.45 0.82 0.55 0.24 0.21 0.25 0.47 0.43 0.33 0.57 0.64 0.94 0.75 0.92 0.69 0.65 0.59 0.55 0.46 0.64 0.56 0.62 0.41 0.15 0.15 0.15 0.09 0.09 0.07 0.05 0.03 0.03 0.04 0.09 0.14 0.17 0.31 0.36 0.28 0.41 0.35 0.36 0.31 0.29 0.35 0.30 0.27 0.38 0.34 0.32 0.30 0.30 0.41 0.43 0.30 0.36 0.36 0.39 0.43 0.51 0.43 0.52 0.62 0.61
0.02 0.07 0.08 0.19 0.87 2.95 3.04 1.25 1.41 1.64 1.89 2.09 1.42 1.37 2.29 1.84 1.72 1.52 1.26 2.39 1.92 1.18 0.40 0.55 0.21 0.12 0.86 0.73 0.18 0.07 0.12 0.17 0.16 0.16 0.24 0.28 0.29 0.33 0.30 0.55 0.44 0.35 0.29 0.51 0.56 0.53 0.73 0.83 0.48 0.56 0.56 0.43 0.40 0.49 0.47 0.31 0.16 0.11 0.12 0.09 0.11 0.07 0.06 0.05 0.14 0.24 0.22 0.21 0.34 0.23 0.39 0.32 0.38 0.32 0.32 0.42 0.31 0.50 0.32 0.29 0.48 0.45 0.42 0.50 0.37 0.36 0.39 0.36 0.30 0.42 0.44 0.54 0.45 0.54 0.47 0.65 0.65
0.09 0.22 0.17 0.51 1.13 2.00 2.22 1.84 1.95 1.88 2.32 1.86 1.82 1.85 1.45 1.83 2.01 1.65 1.74 1.94 1.27 0.58 0.35 0.29 0.21 0.37 0.31 0.36 0.32 0.43 0.40 0.20 0.10 0.07 0.30 0.42 0.44 0.86 0.50 0.51 0.46 0.19 0.25 0.32 0.36 0.45 0.58 0.66 0.47 0.37 0.32 0.36 0.30 0.35 0.38 0.22 0.17 0.16 0.15 0.08 0.08 0.10 0.08 0.15 0.23 0.26 0.18 0.33 0.29 0.30 0.33 0.31 0.27 0.37 0.54 0.52 0.55 0.40 0.39 0.40 0.39 0.44 0.57 0.45 0.33 0.45 0.50 0.44 0.48 0.47 0.55 0.67 0.62 0.64 0.54 0.56 0.53
0.16 0.27 0.91 0.45 2.49 1.00 2.37 2.27 1.72 2.24 1.93 1.68 1.53 1.96 2.41 1.67 2.01 1.99 2.19 1.34 0.45 0.14 0.12 0.29 0.81 0.54 0.68 0.51 0.28 0.15 0.18 0.29 0.09 0.02 0.45 0.30 0.24 0.22 0.23 0.47 0.53 0.28 0.18 0.33 0.26 0.45 0.36 0.47 0.17 0.31 0.33 0.25 0.22 0.27 0.20 0.18 0.27 0.17 0.18 0.13 0.13 0.19 0.12 0.18 0.19 0.16 0.19 0.19 0.26 0.20 0.30 0.31 0.35 0.45 0.44 0.58 0.59 0.42 0.48 0.41 0.46 0.54 0.59 0.47 0.72 0.79 0.57 0.52 0.41 0.52 0.62 0.50 0.62 0.50 0.60 0.71 0.64
0.51 0.58 0.47 1.33 1.97 2.42 1.55 1.69 2.11 2.17 2.03 1.79 2.17 2.14 1.89 2.43 2.04 1.82 2.23 1.33 0.27 0.36 0.12 0.46 0.46 0.35 0.84 0.84 0.22 0.94 0.29 0.12 0.11 0.06 0.14 0.21 0.06 0.12 0.15 0.21 0.40 0.19 0.18 0.26 0.44 0.34 0.50 0.33 0.17 0.25 0.26 0.35 0.25 0.19 0.18 0.20 0.37 0.14 0.18 0.22 0.15 0.17 0.14 0.14 0.13 0.18 0.21 0.23 0.29 0.13 0.35 0.29 0.23 0.36 0.48 0.48 0.44 0.47 0.44 0.42 0.39 0.52 0.72 0.82 0.70 0.48 0.56 0.58 0.53 0.40 0.50 0.49 0.38 0.55 0.44 0.52 0.51
0.64 0.68 0.53 1.04 2.85 3.30 1.48 1.73 2.14 2.06 1.89 1.57 1.97 2.20 1.30 1.48 0.97 1.55 0.80 0.46 0.34 0.31 0.23 0.39 0.36 0.24 0.32 0.29 0.23 0.22 0.09 0.39 0.21 0.13 0.08 0.16 0.10 0.07 0.08 0.17 0.19 0.31 0.32 0.28 0.24 0.41 0.53 0.21 0.23 0.35 0.27 0.15 0.16 0.15 0.32 0.27 0.11 0.14 0.26 0.14 0.17 0.16 0.20 0.16 0.17 0.19 0.23 0.21 0.26 0.25 0.20 0.23 0.22 0.30 0.34 0.42 0.30 0.36 0.59 0.59 0.40 0.52 0.73 0.62 0.59 0.53 0.55 0.48 0.44 0.32 0.31 0.31 0.59 0.53 0.56 0.44 0.33
0.79 0.46 0.98 0.80 0.76 1.64 2.02 1.27 1.64 1.76 2.48 1.40 1.66 2.12 1.51 1.28 0.93 0.51 0.88 0.54 0.25 0.75 0.56 0.43 0.08 0.15 0.30 0.17 0.08 0.16 0.09 0.05 0.16 0.08 0.08 0.08 0.05 0.08 0.14 0.17 0.19 0.20 0.25 0.24 0.23 0.14 0.30 0.15 0.20 0.24 0.16 0.14 0.17 0.11 0.18 0.16 0.20 0.21 0.12 0.14 0.11 0.08 0.11 0.20 0.27 0.24 0.26 0.27 0.23 0.22 0.19 0.20 0.23 0.34 0.36 0.27 0.25 0.30 0.37 0.50 0.52 0.68 0.65 0.58 0.62 0.64 0.46 0.37 0.41 0.32 0.29 0.34 0.51 0.71 0.72 0.51 0.60
0.20 1.02 1.85 1.25 2.29 1.35 1.49 1.28 1.54 1.14 2.25 1.48 1.75 1.30 1.45 1.60 1.42 0.95 0.36 0.62 0.38 0.63 0.50 0.37 0.33 0.65 0.64 0.08 0.70 0.17 0.09 0.10 0.05 0.04 0.05 0.06 0.06 0.12 0.09 0.09 0.17 0.20 0.24 0.19 0.16 0.24 0.21 0.18 0.26 0.18 0.11 0.20 0.07 0.06 0.08 0.15 0.12 0.17 0.12 0.10 0.07 0.13 0.13 0.21 0.24 0.22 0.30 0.26 0.23 0.17 0.28 0.27 0.22 0.23 0.47 0.41 0.27 0.39 0.34 0.65 0.71 0.82 0.73 0.53 0.46 0.33 0.52 0.32 0.21 0.39 0.40 0.40 0.45 0.70 1.04 0.44 0.35
0.57 0.60 0.71 1.25 1.38 1.14 1.17 2.05 1.57 1.02 1.39 1.13 1.33 1.45 1.93 1.75 1.06 1.10 1.07 1.14 0.63 0.70 0.36 0.42 0.29 0.54 0.39 0.24 0.23 0.25 0.15 0.05 0.03 0.01 0.03 0.05 0.06 0.07 0.10 0.08 0.09 0.16 0.15 0.16 0.21 0.27 0.26 0.13 0.17 0.10 0.10 0.11 0.08 0.06 0.09 0.14 0.11 0.12 0.11 0.09 0.08 0.09 0.10 0.14 0.21 0.16 0.20 0.19 0.23 0.26 0.26 0.32 0.34 0.36 0.39 0.37 0.43 0.35 0.38 0.47 0.57 0.62 0.77 0.51 0.54 0.60 0.38 0.39 0.39 0.33 0.28 0.28 0.42 0.70 0.57 0.34 0.38
1.06 0.87 3.29 1.48 1.11 1.82 1.39 1.31 1.07 1.89 1.95 2.00 2.00 1.91 1.83 1.56 1.25 2.37 0.70 0.80 0.67 0.56 0.29 0.43 0.19 0.88 0.33 0.24 0.26 0.19 0.19 0.04 0.03 0.04 0.05 0.04 0.05 0.05 0.04 0.06 0.06 0.12 0.17 0.21 0.13 0.21 0.13 0.35 0.12 0.18 0.12 0.09 0.12 0.07 0.20 0.11 0.14 0.12 0.11 0.08 0.08 0.09 0.12 0.13 0.15 0.19 0.19 0.27 0.35 0.35 0.38 0.37 0.30 0.42 0.35 0.36 0.37 0.38 0.46 0.42 0.51 0.60 0.44 0.60 0.46 0.49 0.42 0.26 0.20 0.22 0.39 0.32 0.67 0.62 0.66 0.46 0.39
1.38 0.75 1.47 1.57 1.50 1.16 1.45 1.23 1.44 1.71 1.88 2.18 1.77 1.73 2.84 2.33 1.25 0.77 1.00 0.99 0.87 0.63 0.15 0.16 0.50 0.24 0.21 0.32 0.36 0.18 0.06 0.02 0.02 0.09 0.06 0.06 0.03 0.03 0.04 0.06 0.09 0.08 0.11 0.13 0.09 0.24 0.25 0.24 0.18 0.08 0.16 0.13 0.08 0.11 0.13 0.06 0.07 0.09 0.10 0.08 0.12 0.08 0.16 0.14 0.17 0.14 0.20 0.33 0.35 0.26 0.29 0.22 0.34 0.35 0.25 0.29 0.49 0.41 0.39 0.54 0.34 0.31 0.60 0.45 0.44 0.38 0.29 0.20 0.31 0.27 0.23 0.41 0.42 0.68 0.70 0.56 0.41
2.22 1.51 1.75 2.02 1.91 1.11 1.27 1.16 1.44 1.36 2.44 2.16 2.76 2.82 2.08 1.96 1.99 0.99 0.87 1.04 0.89 0.30 0.24 0.19 0.59 0.24 0.29 0.16 0.40 0.46 0.09 0.04 0.02 0.02 0.05 0.04 0.04 0.04 0.03 0.06 0.09 0.07 0.04 0.07 0.14 0.23 0.14 0.24 0.18 0.29 0.11 0.13 0.09 0.11 0.07 0.12 0.07 0.09 0.08 0.12 0.15 0.13 0.12 0.16 0.08 0.12 0.23 0.33 0.33 0.28 0.23 0.22 0.29 0.24 0.28 0.33 0.32 0.30 0.17 0.22 0.33 0.39 0.36 0.54 0.38 0.24 0.33 0.42 0.56 0.42 0.63 0.53 0.65 0.53 0.59 0.49 0.48
1.63 1.81 2.44 1.36 1.36 1.26 1.24 1.11 1.76 1.65 2.25 3.60 2.78 3.14 2.64 2.13 1.64 1.63 1.39 0.83 0.36 0.38 0.24 0.56 0.13 0.26 0.58 0.24 0.39 0.23 0.18 0.08 0.04 0.02 0.04 0.03 0.04 0.07 0.04 0.06 0.11 0.07 0.03 0.07 0.11 0.13 0.14 0.23 0.17 0.22 0.22 0.15 0.11 0.07 0.05 0.08 0.06 0.09 0.11 0.20 0.17 0.19 0.17 0.15 0.07 0.14 0.20 0.24 0.32 0.24 0.25 0.26 0.25 0.08 0.23 0.35 0.32 0.16 0.14 0.25 0.50 0.61 0.57 0.53 0.42 0.21 0.33 0.31 0.55 0.63 0.56 0.77 0.81 0.87 0.68 0.45 0.52
0.86 1.70 1.83 1.38 0.56 1.05 1.25 1.56 1.48 2.12 2.48 2.82 3.22 2.08 2.34 2.40 1.58 1.31 0.86 0.67 1.28 1.88 0.22 0.16 0.28 0.47 0.45 0.15 0.92 0.36 0.18 0.07 0.06 0.05 0.03 0.05 0.07 0.05 0.04 0.05 0.04 0.06 0.06 0.07 0.10 0.16 0.12 0.16 0.15 0.12 0.14 0.16 0.17 0.14 0.10 0.06 0.08 0.15 0.14 0.23 0.22 0.17 0.15 0.10 0.12 0.15 0.19 0.15 0.28 0.24 0.24 0.34 0.16 0.14 0.23 0.14 0.15 0.15 0.14 0.18 0.43 0.63 0.63 0.32 0.29 0.28 0.34 0.45 0.50 0.58 0.73 0.99 1.03 0.94 1.01 0.71 0.59
0.96 1.15 1.13 0.95 1.10 0.42 0.64 1.86 1.44 1.41 1.66 3.36 3.35 2.06 1.62 2.02 1.56 1.41 1.13 0.71 1.22 0.94 0.51 0.09 0.32 0.25 0.46 0.10 0.40 0.15 0.13 0.07 0.07 0.03 0.07 0.08 0.07 0.05 0.04 0.05 0.07 0.05 0.09 0.13 0.13 0.16 0.13 0.18 0.17 0.18 0.14 0.17 0.10 0.21 0.23 0.18 0.04 0.21 0.14 0.14 0.14 0.08 0.09 0.09 0.13 0.27 0.20 0.19 0.25 0.17 0.25 0.23 0.22 0.13 0.28 0.20 0.12 0.15 0.14 0.14 0.44 0.35 0.34 0.43 0.22 0.19 0.31 0.58 0.75 0.84 0.66 0.71 0.81 0.87 1.15 0.89 1.01
0.38 0.88 1.20 1.30 1.46 1.39 1.12 1.59 0.88 1.41 1.74 2.89 2.87 2.32 1.86 1.23 1.63 2.25 1.78 2.29 0.38 0.12 0.21 0.37 0.09 0.59 0.21 0.07 0.04 0.06 0.05 0.07 0.05 0.05 0.07 0.12 0.09 0.06 0.09 0.10 0.08 0.10 0.11 0.14 0.12 0.14 0.14 0.16 0.12 0.12 0.12 0.09 0.18 0.11 0.13 0.15 0.10 0.07 0.11 0.24 0.06 0.11 0.06 0.13 0.30 0.33 0.30 0.35 0.29 0.27 0.22 0.16 0.21 0.24 0.23 0.14 0.14 0.17 0.10 0.17 0.21 0.29 0.33 0.26 0.18 0.20 0.25 0.36 0.65 0.48 0.82 0.82 0.79 0.76 0.76 1.06 1.29
0.28 0.56 1.32 1.14 1.69 1.18 0.81 1.17 0.41 1.47 1.32 2.26 1.70 2.22 1.59 1.57 1.30 2.44 1.60 1.15 0.71 0.35 0.75 0.21 0.17 0.06 0.11 0.10 0.06 0.04 0.05 0.03 0.04 0.10 0.08 0.21 0.17 0.24 0.25 0.26 0.17 0.20 0.22 0.19 0.13 0.12 0.11 0.12 0.27 0.15 0.10 0.10 0.09 0.18 0.11 0.15 0.10 0.11 0.17 0.11 0.04 0.03 0.10 0.23 0.27 0.32 0.36 0.25 0.20 0.24 0.20 0.25 0.42 0.41 0.30 0.18 0.17 0.21 0.08 0.11 0.14 0.19 0.22 0.21 0.17 0.24 0.22 0.30 0.40 0.71 0.56 0.39 0.41 0.77 0.91 0.68 0.80
0.47 1.30 0.88 1.63 1.47 1.16 0.92 1.25 0.46 0.32 1.45 0.87 1.26 1.72 1.41 0.84 0.67 1.53 1.39 1.87 1.49 0.75 0.75 0.18 0.24 0.11 0.06 0.03 0.05 0.03 0.03 0.04 0.08 0.09 0.12 0.15 0.13 0.23 0.22 0.19 0.20 0.20 0.18 0.22 0.18 0.18 0.12 0.13 0.15 0.13 0.17 0.12 0.15 0.13 0.20 0.23 0.18 0.23 0.32 0.20 0.22 0.15 0.21 0.28 0.39 0.40 0.66 0.42 0.27 0.29 0.48 0.60 0.55 0.61 0.52 0.45 0.29 0.28 0.25 0.15 0.11 0.17 0.22 0.24 0.30 0.27 0.22 0.31 0.34 0.34 0.38 0.29 0.36 0.32 0.27 0.33 0.28
0.54 0.82 1.07 2.12 0.60 1.14 0.76 0.60 0.58 0.98 1.47 1.14 1.57 1.00 1.63 1.22 0.98 0.76 1.06 0.91 0.76 0.76 0.48 0.33 0.20 0.06 0.05 0.04 0.04 0.03 0.03 0.06 0.07 0.02 0.05 0.05 0.09 0.09 0.07 0.11 0.11 0.15 0.20 0.19 0.17 0.17 0.09 0.12 0.14 0.13 0.08 0.11 0.16 0.12 0.21 0.16 0.20 0.32 0.27 0.15 0.13 0.25 0.47 0.44 0.53 0.38 0.36 0.28 0.27 0.32 0.55 0.62 0.43 0.57 0.49 0.47 0.46 0.32 0.08 0.10 0.12 0.19 0.24 0.22 0.17 0.14 0.21 0.21 0.16 0.28 0.19 0.11 0.24 0.17 0.28 0.20 0.19
0.52 0.48 1.36 1.56 0.76 0.78 0.43 0.30 0.71 0.37 0.47 0.69 0.95 1.23 1.50 1.68 1.85 1.20 1.59 0.62 0.98 0.59 0.33 0.21 0.11 0.09 0.09 0.06 0.03 0.03 0.03 0.04 0.02 0.07 0.04 0.07 0.03 0.02 0.04 0.05 0.06 0.07 0.08 0.09 0.09 0.17 0.09 0.08 0.07 0.11 0.09 0.07 0.10 0.15 0.11 0.28 0.23 0.17 0.13 0.12 0.08 0.28 0.39 0.47 0.47 0.35 0.28 0.29 0.39 0.69 0.43 0.39 0.47 0.45 0.22 0.16 0.23 0.20 0.22 0.10 0.14 0.17 0.14 0.17 0.08 0.20 0.03 0.09 0.04 0.06 0.14 0.16 0.29 0.29 0.26 0.15 0.14
0.52 0.46 0.77 1.22 0.69 0.70 0.55 0.34 0.57 0.39 0.72 0.60 0.98 1.06 1.39 1.32 1.85 1.65 1.13 1.05 1.49 1.30 0.35 0.23 0.09 0.11 0.04 0.02 0.03 0.02 0.04 0.04 0.06 0.05 0.04 0.03 0.04 0.02 0.01 0.02 0.07 0.06 0.07 0.06 0.09 0.10 0.08 0.06 0.07 0.12 0.06 0.10 0.09 0.12 0.09 0.24 0.19 0.23 0.10 0.18 0.16 0.31 0.49 0.33 0.41 0.24 0.31 0.42 0.32 0.59 0.52 0.54 0.34 0.24 0.28 0.44 0.37 0.42 0.44 0.29 0.46 0.60 0.53 0.62 0.39 0.71 0.69 0.51 0.60 0.50 0.55 0.29 0.30 0.20 0.26 0.15 0.06
0.13 0.49 0.78 0.19 0.46 0.29 0.43 0.19 0.16 0.39 0.40 0.63 1.11 1.39 1.93 1.25 1.23 1.94 0.72 1.38 1.69 1.22 0.88 0.55 0.22 0.03 0.02 0.01 0.02 0.02 0.02 0.03 0.05 0.03 0.02 0.02 0.01 0.04 0.02 0.02 0.06 0.05 0.08 0.09 0.06 0.06 0.08 0.07 0.04 0.10 0.05 0.06 0.07 0.08 0.10 0.10 0.15 0.13 0.15 0.14 0.15 0.32 0.68 0.21 0.26 0.31 0.14 0.47 1.14 0.74 0.38 0.58 0.48 0.46 0.45 0.44 0.41 0.51 0.58 0.62 0.53 0.32 0.45 0.58 0.42 0.64 0.72 0.55 0.58 0.78 0.38 0.13 0.15 0.18 0.08 0.07 0.03
0.17 0.19 0.06 0.08 0.14 0.98 0.26 0.14 0.25 0.13 0.46 1.27 0.78 1.22 0.76 0.91 1.33 1.16 0.60 2.09 1.63 1.10 0.48 0.48 0.20 0.04 0.03 0.02 0.02 0.02 0.01 0.03 0.04 0.03 0.01 0.01 0.01 0.01 0.01 0.01 0.04 0.06 0.04 0.03 0.03 0.06 0.04 0.06 0.04 0.05 0.07 0.09 0.07 0.09 0.12 0.12 0.17 0.21 0.21 0.18 0.35 0.24 0.31 0.42 0.36 0.09 0.24 0.47 0.72 0.45 0.34 0.34 0.29 0.24 0.22 0.20 0.49 0.40 0.31 0.46 0.35 0.49 0.42 0.38 0.33 0.69 0.23 0.64 0.79 0.25 0.39 0.15 0.12 0.27 0.21 0.05 0.07
0.14 0.76 0.02 0.12 0.29 0.23 0.15 0.09 0.02 0.04 0.27 0.89 1.20 0.52 1.13 0.88 1.25 0.97 1.15 1.14 1.53 0.73 0.56 0.24 0.23 0.13 0.02 0.02 0.03 0.02 0.01 0.02 0.01 0.03 0.00 0.01 0.00 0.00 0.00 0.01 0.01 0.02 0.03 0.02 0.03 0.05 0.03 0.04 0.03 0.04 0.07 0.06 0.06 0.09 0.08 0.09 0.10 0.22 0.16 0.15 0.31 0.10 0.33 0.67 0.32 0.27 0.14 0.24 0.23 0.88 0.35 0.50 0.15 0.60 0.36 0.13 0.12 0.23 0.11 0.49 0.72 0.51 0.68 0.87 0.89 0.80 0.29 0.40 0.22 0.35 0.13 0.11 0.07 0.11 0.11 0.04 0.06
0.11 0.30 0.03 0.06 0.05 0.22 0.09 0.08 0.03 0.02 0.10 0.33 0.48 0.50 0.99 1.03 1.86 0.91 1.14 0.86 0.45 0.69 0.33 0.26 0.16 0.11 0.01 0.03 0.01 0.02 0.04 0.04 0.02 0.03 0.00 0.00 0.00 0.01 0.01 0.00 0.01 0.01 0.02 0.03 0.02 0.02 0.03 0.02 0.05 0.04 0.04 0.04 0.07 0.10 0.10 0.10 0.13 0.17 0.12 0.23 0.51 0.21 0.58 0.29 0.12 0.08 0.17 0.16 0.25 0.40 0.69 0.25 0.15 0.13 0.19 0.16 0.08 0.30 0.32 0.22 0.42 0.25 0.27 0.24 0.22 0.23 0.15 0.15 0.15 0.31 0.26 0.09 0.12 0.07 0.07 0.05 0.07
0.00 0.06 0.20 0.04 0.01 0.04 0.07 0.08 0.02 0.04 0.27 0.31 0.24 1.22 1.42 0.90 1.69 1.35 1.49 0.94 0.57 0.36 0.32 0.21 0.08 0.07 0.02 0.02 0.01 0.01 0.02 0.02 0.03 0.01 0.00 0.01 0.01 0.01 0.00 0.00 0.00 0.02 0.01 0.02 0.02 0.02 0.03 0.03 0.02 0.03 0.05 0.03 0.05 0.09 0.15 0.10 0.16 0.14 0.09 0.07 0.06 0.10 0.06 0.10 0.10 0.08 0.11 0.10 0.29 0.51 0.69 0.35 0.17 0.17 0.09 0.08 0.24 0.10 0.28 0.30 0.31 0.24 0.34 0.18 0.24 0.29 0.40 0.27 0.20 0.09 0.07 0.13 0.06 0.09 0.11 0.06 0.07
0.00 0.00 0.02 0.12 0.04 0.04 0.09 0.09 0.18 0.05 0.13 0.32 0.68 0.47 1.18 0.88 0.37 1.23 1.08 0.84 0.60 0.48 0.22 0.37 0.26 0.05 0.02 0.00 0.01 0.02 0.01 0.02 0.00 0.00 0.01 0.00 0.00 0.00 0.00 0.00 0.00 0.00 0.00 0.01 0.02 0.02 0.01 0.03 0.03 0.03 0.03 0.03 0.03 0.07 0.08 0.06 0.08 0.20 0.08 0.05 0.10 0.06 0.20 0.09 0.14 0.30 0.11 0.32 0.30 0.38 0.48 0.41 0.07 0.11 0.10 0.17 0.34 0.09 0.60 0.49 0.16 0.16 0.08 0.14 0.20 0.29 0.16 0.08 0.13 0.21 0.18 0.06 0.09 0.15 0.10 0.08 0.06
0.00 0.00 0.00 0.03 0.01 0.01 0.15 0.11 0.15 0.09 0.16 0.15 0.57 0.68 0.74 1.10 0.80 1.35 1.06 0.57 0.52 0.26 0.11 0.15 0.09 0.08 0.03 0.03 0.01 0.00 0.01 0.02 0.00 0.00 0.01 0.00 0.00 0.00 0.00 0.00 0.00 0.00 0.00 0.01 0.01 0.01 0.03 0.01 0.03 0.01 0.02 0.03 0.03 0.05 0.05 0.07 0.07 0.07 0.05 0.05 0.05 0.02 0.04 0.15 0.29 0.12 0.06 0.10 0.15 0.30 0.26 0.17 0.21 0.17 0.14 0.07 0.49 0.21 0.35 0.41 0.21 0.19 0.10 0.20 0.32 0.11 0.18 0.15 0.13 0.18 0.16 0.16 0.13 0.11 0.10 0.07 0.05
0.00 0.00 0.00 0.00 0.01 0.05 0.01 0.13 0.16 0.03 0.16 0.19 0.27 0.77 1.15 0.72 0.82 0.53 0.62 0.74 0.48 0.25 0.08 0.08 0.06 0.02 0.00 0.00 0.01 0.00 0.01 0.03 0.01 0.00 0.00 0.00 0.00 0.00 0.00 0.00 0.00 0.00 0.00 0.00 0.00 0.00 0.00 0.02 0.02 0.01 0.02 0.03 0.03 0.04 0.04 0.06 0.06 0.03 0.04 0.03 0.02 0.06 0.11 0.07 0.05 0.04 0.07 0.09 0.13 0.08 0.15 0.16 0.18 0.11 0.17 0.35 0.07 0.21 0.17 0.36 0.24 0.05 0.05 0.15 0.18 0.15 0.13 0.14 0.14 0.15 0.27 0.24 0.19 0.14 0.04 0.06 0.07
0.00 0.00 0.00 0.00 0.01 0.03 0.01 0.47 0.29 0.04 0.15 0.23 0.35 1.02 0.75 0.58 0.50 0.74 0.62 0.56 0.37 0.26 0.09 0.13 0.09 0.06 0.03 0.00 0.00 0.00 0.01 0.01 0.00 0.00 0.00 0.00 0.00 0.00 0.00 0.00 0.00 0.00 0.00 0.00 0.00 0.00 0.00 0.01 0.01 0.02 0.02 0.03 0.02 0.03 0.02 0.03 0.02 0.02 0.02 0.04 0.08 0.10 0.13 0.13 0.08 0.07 0.12 0.08 0.05 0.04 0.10 0.13 0.09 0.18 0.31 0.31 0.14 0.22 0.19 0.23 0.32 0.17 0.06 0.10 0.10 0.09 0.13 0.19 0.14 0.27 0.18 0.16 0.16 0.16 0.08 0.07 0.10
0.00 0.00 0.00 0.01 0.02 0.05 0.43 0.99 0.56 0.24 0.08 0.21 0.15 1.12 1.21 0.69 1.02 0.67 0.98 0.76 0.46 0.39 0.32 0.11 0.18 0.06 0.02 0.00 0.00 0.00 0.00 0.00 0.00 0.00 0.00 0.00 0.01 0.00 0.00 0.00 0.00 0.00 0.00 0.00 0.00 0.00 0.00 0.00 0.01 0.01 0.01 0.02 0.03 0.02 0.03 0.01 0.01 0.02 0.01 0.02 0.05 0.15 0.14 0.11 0.12 0.05 0.03 0.03 0.03 0.03 0.10 0.13 0.10 0.28 0.28 0.22 0.11 0.37 0.11 0.12 0.26 0.17 0.19 0.17 0.10 0.10 0.11 0.22 0.14 0.13 0.10 0.22 0.14 0.12 0.12 0.05 0.05
0.00 0.00 0.01 0.00 0.02 0.08 0.49 0.38 0.54 0.22 0.11 0.07 0.13 0.75 1.06 0.74 0.71 0.92 0.35 0.47 0.75 0.82 0.51 0.15 0.20 0.18 0.03 0.01 0.01 0.01 0.01 0.00 0.00 0.00 0.00 0.00 0.00 0.00 0.01 0.00 0.00 0.00 0.00 0.00 0.00 0.00 0.00 0.01 0.00 0.00 0.01 0.01 0.01 0.01 0.01 0.01 0.01 0.01 0.01 0.01 0.06 0.11 0.04 0.12 0.19 0.07 0.04 0.04 0.01 0.03 0.09 0.15 0.17 0.16 0.32 0.36 0.20 0.18 0.18 0.12 0.15 0.16 0.08 0.16 0.14 0.11 0.16 0.19 0.20 0.25 0.16 0.26 0.16 0.17 0.08 0.04 0.05
0.00 0.00 0.10 0.02 0.00 0.02 0.02 0.15 0.16 0.08 0.09 0.08 0.41 0.96 0.78 0.73 0.64 0.67 0.81 0.74 0.92 0.60 0.81 0.75 0.19 0.43 0.14 0.05 0.01 0.01 0.01 0.00 0.01 0.00 0.00 0.00 0.00 0.00 0.00 0.00 0.00 0.00 0.00 0.00 0.00 0.00 0.00 0.00 0.02 0.00 0.00 0.00 0.01 0.01 0.01 0.01 0.01 0.01 0.02 0.01 0.03 0.03 0.12 0.04 0.10 0.04 0.09 0.02 0.08 0.06 0.09 0.13 0.20 0.31 0.22 0.22 0.18 0.19 0.18 0.10 0.19 0.20 0.19 0.14 0.12 0.28 0.10 0.11 0.36 0.24 0.20 0.12 0.11 0.18 0.15 0.05 0.07
0.00 0.00 0.01 0.01 0.03 0.01 0.01 0.08 0.05 0.16 0.01 0.21 0.08 0.39 1.08 0.85 0.71 1.42 0.88 0.75 0.82 1.40 0.74 0.37 0.52 0.29 0.07 0.03 0.02 0.02 0.02 0.00 0.02 0.00 0.00 0.00 0.00 0.00 0.00 0.00 0.00 0.00 0.00 0.00 0.00 0.00 0.00 0.00 0.00 0.00 0.00 0.01 0.00 0.01 0.01 0.01 0.01 0.02 0.02 0.01 0.04 0.02 0.06 0.09 0.03 0.13 0.12 0.08 0.11 0.21 0.17 0.16 0.19 0.22 0.23 0.27 0.30 0.29 0.16 0.18 0.26 0.28 0.19 0.11 0.23 0.20 0.44 0.24 0.22 0.18 0.31 0.16 0.10 0.11 0.13 0.11 0.07
0.00 0.00 0.00 0.01 0.00 0.00 0.02 0.04 0.29 0.03 0.04 0.22 0.50 0.36 0.54 0.53 0.42 0.71 0.70 1.11 0.94 0.56 0.52 0.52 0.16 0.60 0.22 0.01 0.08 0.03 0.02 0.03 0.02 0.01 0.00 0.00 0.00 0.00 0.00 0.00 0.00 0.00 0.00 0.00 0.00 0.00 0.01 0.01 0.00 0.00 0.01 0.00 0.01 0.01 0.01 0.01 0.02 0.03 0.06 0.05 0.03 0.02 0.06 0.07 0.06 0.08 0.09 0.08 0.13 0.11 0.08 0.29 0.25 0.35 0.32 0.40 0.26 0.31 0.21 0.14 0.09 0.18 0.08 0.12 0.21 0.34 0.28 0.25 0.17 0.20 0.26 0.19 0.11 0.13 0.13 0.09 0.11
0.00 0.00 0.00 0.01 0.02 0.00 0.03 0.01 0.00 0.00 0.03 0.07 0.57 0.68 0.75 0.43 0.27 0.43 0.58 1.01 0.53 0.79 0.99 0.75 0.65 0.57 0.44 0.32 0.22 0.04 0.01 0.02 0.01 0.01 0.00 0.00 0.00 0.00 0.00 0.00 0.00 0.00 0.00 0.00 0.00 0.00 0.00 0.00 0.00 0.00 0.00 0.01 0.01 0.01 0.02 0.02 0.01 0.02 0.03 0.03 0.04 0.03 0.02 0.05 0.04 0.04 0.03 0.03 0.13 0.18 0.09 0.17 0.12 0.21 0.17 0.13 0.21 0.20 0.13 0.10 0.15 0.16 0.09 0.13 0.22 0.27 0.21 0.28 0.22 0.29 0.21 0.15 0.20 0.16 0.09 0.09 0.10
0.00 0.00 0.00 0.00 0.00 0.01 0.00 0.01 0.00 0.01 0.04 0.09 0.55 0.54 0.37 0.47 0.35 0.20 0.21 0.61 0.44 0.46 0.61 0.45 0.78 0.53 0.32 0.45 0.14 0.02 0.05 0.03 0.00 0.01 0.01 0.02 0.00 0.00 0.00 0.00 0.00 0.00 0.00 0.00 0.01 0.00 0.00 0.00 0.00 0.00 0.01 0.01 0.02 0.04 0.04 0.02 0.05 0.03 0.03 0.02 0.01 0.02 0.01 0.02 0.02 0.01 0.02 0.10 0.08 0.12 0.05 0.11 0.08 0.08 0.07 0.08 0.07 0.10 0.15 0.23 0.18 0.20 0.17 0.19 0.23 0.28 0.16 0.24 0.27 0.17 0.20 0.13 0.10 0.19 0.27 0.19 0.05
0.00 0.00 0.00 0.00 0.00 0.01 0.00 0.01 0.00 0.01 0.04 0.13 0.02 0.11 0.13 0.17 0.16 0.16 0.21 0.24 0.72 0.54 0.81 0.51 0.31 0.42 0.43 0.15 0.28 0.45 0.08 0.02 0.02 0.02 0.01 0.00 0.00 0.00 0.00 0.00 0.00 0.00 0.00 0.00 0.00 0.00 0.00 0.00 0.00 0.00 0.00 0.01 0.01 0.01 0.02 0.02 0.01 0.01 0.01 0.01 0.01 0.03 0.03 0.02 0.04 0.03 0.03 0.09 0.03 0.02 0.03 0.04 0.04 0.04 0.07 0.09 0.13 0.10 0.10 0.13 0.10 0.28 0.24 0.17 0.13 0.18 0.18 0.18 0.12 0.27 0.18 0.33 0.08 0.18 0.22 0.15 0.09
0.00 0.00 0.00 0.00 0.00 0.00 0.00 0.00 0.00 0.02 0.00 0.08 0.01 0.05 0.08 0.09 0.08 0.09 0.21 0.13 0.28 0.43 0.47 0.46 0.51 0.76 0.91 0.54 0.35 0.22 0.24 0.06 0.02 0.02 0.01 0.01 0.01 0.00 0.00 0.00 0.00 0.00 0.00 0.00 0.00 0.01 0.00 0.00 0.00 0.01 0.01 0.01 0.00 0.01 0.01 0.02 0.01 0.01 0.01 0.02 0.01 0.03 0.02 0.03 0.07 0.08 0.04 0.07 0.03 0.02 0.06 0.03 0.04 0.07 0.07 0.10 0.14 0.20 0.14 0.22 0.16 0.19 0.15 0.06 0.07 0.09 0.10 0.10 0.16 0.13 0.14 0.13 0.14 0.16 0.11 0.10 0.09
0.00 0.00 0.00 0.01 0.00 0.01 0.13 0.03 0.00 0.01 0.02 0.03 0.02 0.03 0.04 0.04 0.08 0.10 0.28 0.11 0.12 0.38 0.84 1.46 0.89 1.39 0.74 0.49 0.37 0.25 0.05 0.26 0.22 0.02 0.01 0.01 0.00 0.00 0.00 0.00 0.00 0.00 0.00 0.00 0.00 0.00 0.01 0.00 0.00 0.00 0.01 0.01 0.01 0.01 0.00 0.00 0.01 0.01 0.01 0.02 0.03 0.04 0.09 0.04 0.10 0.05 0.09 0.07 0.07 0.04 0.06 0.08 0.13 0.16 0.11 0.16 0.20 0.06 0.06 0.10 0.11 0.09 0.06 0.10 0.11 0.08 0.07 0.19 0.09 0.17 0.16 0.21 0.09 0.16 0.19 0.13 0.04
0.00 0.00 0.00 0.00 0.00 0.00 0.00 0.02 0.00 0.01 0.01 0.05 0.21 0.03 0.05 0.02 0.03 0.15 0.51 1.29 1.13 1.09 0.57 1.25 1.38 0.82 0.51 0.43 0.31 0.21 0.35 0.11 0.06 0.01 0.01 0.00 0.00 0.00 0.00 0.00 0.00 0.00 0.00 0.00 0.00 0.00 0.00 0.00 0.00 0.00 0.00 0.00 0.00 0.00 0.01 0.01 0.02 0.03 0.04 0.04 0.04 0.05 0.03 0.06 0.05 0.05 0.05 0.05 0.03 0.04 0.04 0.08 0.11 0.04 0.04 0.03 0.01 0.02 0.03 0.07 0.07 0.11 0.06 0.13 0.10 0.09 0.10 0.17 0.13 0.18 0.09 0.12 0.17 0.22 0.14 0.08 0.07
0.00 0.00 0.00 0.00 0.00 0.00 0.00 0.01 0.01 0.03 0.00 0.02 0.00 0.07 0.05 0.04 0.04 0.08 0.13 0.52 0.26 0.14 0.32 0.51 0.90 0.51 0.34 0.21 0.30 0.30 0.31 0.19 0.12 0.11 0.04 0.03 0.01 0.00 0.00 0.00 0.00 0.00 0.00 0.00 0.00 0.00 0.00 0.00 0.00 0.00 0.00 0.01 0.01 0.00 0.01 0.02 0.03 0.06 0.06 0.08 0.11 0.07 0.10 0.05 0.05 0.01 0.04 0.05 0.03 0.03 0.06 0.03 0.06 0.05 0.01 0.02 0.02 0.02 0.02 0.06 0.04 0.08 0.07 0.11 0.10 0.13 0.12 0.11 0.08 0.10 0.09 0.10 0.11 0.09 0.16 0.05 0.04
0.00 0.00 0.00 0.00 0.00 0.00 0.01 0.00 0.00 0.01 0.03 0.02 0.01 0.09 0.11 0.01 0.05 0.05 0.04 0.05 0.12 0.26 0.20 0.22 0.44 0.54 0.40 0.15 0.18 0.19 0.15 0.16 0.10 0.11 0.08 0.10 0.04 0.01 0.00 0.00 0.00 0.00 0.00 0.00 0.00 0.00 0.00 0.00 0.00 0.00 0.00 0.00 0.00 0.00 0.01 0.01 0.02 0.02 0.05 0.05 0.02 0.02 0.02 0.01 0.01 0.02 0.01 0.00 0.02 0.02 0.02 0.01 0.01 0.00 0.00 0.00 0.04 0.02 0.03 0.04 0.04 0.03 0.06 0.09 0.06 0.12 0.06 0.08 0.08 0.05 0.04 0.05 0.08 0.15 0.06 0.11 0.02
0.00 0.00 0.00 0.00 0.00 0.00 0.00 0.00 0.00 0.01 0.00 0.01 0.02 0.00 0.07 0.07 0.07 0.15 0.03 0.05 0.17 0.30 0.24 0.09 0.23 0.33 0.56 0.24 0.17 0.16 0.17 0.09 0.11 0.07 0.07 0.03 0.04 0.03 0.01 0.00 0.00 0.00 0.00 0.00 0.00 0.00 0.00 0.00 0.00 0.00 0.00 0.00 0.00 0.00 0.01 0.01 0.01 0.01 0.01 0.02 0.01 0.01 0.01 0.01 0.00 0.00 0.00 0.01 0.02 0.02 0.03 0.00 0.01 0.01 0.01 0.06 0.01 0.03 0.02 0.06 0.04 0.03 0.02 0.04 0.07 0.07 0.07 0.07 0.09 0.05 0.04 0.05 0.06 0.06 0.14 0.08 0.05
0.00 0.00 0.00 0.00 0.00 0.00 0.00 0.01 0.01 0.00 0.01 0.11 0.01 0.00 0.03 0.01 0.11 0.04 0.03 0.10 0.36 0.47 0.22 0.10 0.25 0.22 0.25 0.21 0.32 0.74 0.59 0.66 0.45 0.18 0.09 0.04 0.06 0.04 0.04 0.01 0.01 0.00 0.00 0.00 0.00 0.00 0.00 0.00 0.00 0.00 0.00 0.00 0.00 0.00 0.00 0.00 0.00 0.01 0.01 0.01 0.01 0.00 0.01 0.00 0.01 0.01 0.01 0.00 0.01 0.01 0.01 0.02 0.01 0.01 0.00 0.01 0.01 0.02 0.03 0.04 0.03 0.03 0.04 0.04 0.05 0.07 0.08 0.07 0.06 0.09 0.06 0.05 0.05 0.04 0.03 0.07 0.05
0.00 0.00 0.00 0.00 0.00 0.00 0.00 0.00 0.01 0.02 0.01 0.01 0.00 0.01 0.04 0.06 0.04 0.05 0.06 0.42 0.34 0.31 0.28 0.15 0.20 0.30 0.29 0.23 0.33 0.44 0.26 0.45 0.39 0.14 0.13 0.08 0.07 0.04 0.06 0.03 0.02 0.01 0.00 0.00 0.00 0.00 0.00 0.00 0.00 0.00 0.00 0.00 0.00 0.01 0.00 0.00 0.00 0.00 0.00 0.00 0.00 0.01 0.00 0.00 0.00 0.00 0.00 0.00 0.01 0.02 0.01 0.02 0.00 0.02 0.03 0.00 0.01 0.01 0.01 0.05 0.02 0.02 0.02 0.07 0.03 0.09 0.04 0.08 0.04 0.04 0.06 0.05 0.05 0.06 0.05 0.05 0.02
0.00 0.00 0.00 0.00 0.00 0.00 0.00 0.00 0.00 0.01 0.00 0.00 0.00 0.01 0.00 0.14 0.02 0.03 0.03 0.17 0.09 0.12 0.25 0.25 0.40 0.19 0.13 0.20 0.16 0.22 0.26 0.25 0.22 0.13 0.13 0.06 0.06 0.12 0.05 0.08 0.01 0.00 0.01 0.00 0.00 0.00 0.00 0.00 0.00 0.00 0.00 0.00 0.00 0.00 0.00 0.00 0.00 0.00 0.00 0.00 0.00 0.01 0.01 0.00 0.00 0.00 0.00 0.01 0.01 0.01 0.01 0.02 0.00 0.00 0.00 0.02 0.00 0.02 0.01 0.02 0.02 0.01 0.03 0.07 0.02 0.06 0.05 0.02 0.02 0.02 0.02 0.07 0.06 0.08 0.04 0.09 0.03
0.00 0.00 0.00 0.00 0.00 0.00 0.00 0.00 0.00 0.00 0.00 0.00 0.00 0.00 0.02 0.06 0.04 0.10 0.05 0.04 0.08 0.06 0.16 0.03 0.30 0.34 0.31 0.08 0.11 0.15 0.27 0.33 0.55 0.62 0.56 0.25 0.09 0.13 0.02 0.05 0.02 0.01 0.00 0.00 0.00 0.00 0.00 0.00 0.00 0.00 0.00 0.00 0.00 0.00 0.00 0.00 0.00 0.00 0.00 0.00 0.00 0.00 0.00 0.00 0.00 0.00 0.00 0.00 0.00 0.00 0.00 0.01 0.02 0.01 0.00 0.01 0.01 0.00 0.00 0.00 0.01 0.01 0.03 0.03 0.02 0.03 0.03 0.01 0.03 0.02 0.03 0.03 0.03 0.04 0.05 0.07 0.06
0.00 0.00 0.00 0.00 0.00 0.00 0.02 0.00 0.00 0.00 0.00 0.00 0.00 0.00 0.01 0.02 0.02 0.01 0.01 0.03 0.01 0.00 0.05 0.03 0.01 0.11 0.24 0.16 0.14 0.09 0.19 0.39 0.45 0.40 0.26 0.13 0.09 0.07 0.11 0.02 0.01 0.02 0.01 0.00 0.00 0.00 0.00 0.00 0.00 0.00 0.00 0.00 0.00 0.00 0.00 0.00 0.00 0.00 0.00 0.00 0.00 0.00 0.00 0.00 0.00 0.00 0.00 0.00 0.00 0.00 0.00 0.01 0.00 0.01 0.00 0.00 0.00 0.00 0.00 0.00 0.01 0.03 0.02 0.01 0.02 0.02 0.04 0.02 0.02 0.03 0.02 0.03 0.03 0.04 0.06 0.06 0.03
0.00 0.00 0.00 0.00 0.00 0.01 0.00 0.00 0.00 0.00 0.00 0.00 0.00 0.00 0.01 0.04 0.04 0.05 0.01 0.03 0.01 0.00 0.01 0.00 0.01 0.01 0.08 0.05 0.04 0.24 0.15 0.33 0.52 0.21 0.10 0.22 0.16 0.08 0.24 0.34 0.13 0.03 0.02 0.01 0.01 0.00 0.00 0.00 0.00 0.00 0.00 0.00 0.00 0.00 0.00 0.00 0.00 0.00 0.00 0.00 0.00 0.00 0.00 0.00 0.00 0.00 0.00 0.00 0.00 0.00 0.00 0.00 0.01 0.01 0.00 0.00 0.00 0.00 0.00 0.00 0.00 0.01 0.03 0.01 0.04 0.04 0.04 0.02 0.05 0.12 0.06 0.03 0.05 0.02 0.08 0.07 0.08
0.00 0.00 0.00 0.00 0.00 0.00 0.00 0.00 0.00 0.00 0.00 0.00 0.01 0.00 0.00 0.04 0.28 0.07 0.00 0.01 0.00 0.00 0.00 0.00 0.01 0.00 0.00 0.08 0.02 0.10 0.54 0.48 0.43 0.30 0.27 0.31 0.22 0.24 0.41 0.33 0.13 0.04 0.02 0.03 0.00 0.01 0.01 0.02 0.02 0.00 0.00 0.00 0.00 0.00 0.00 0.00 0.00 0.00 0.00 0.00 0.00 0.00 0.00 0.00 0.00 0.00 0.00 0.00 0.00 0.00 0.00 0.00 0.00 0.00 0.00 0.00 0.00 0.00 0.00 0.00 0.00 0.02 0.07 0.01 0.01 0.02 0.03 0.02 0.03 0.03 0.03 0.05 0.05 0.08 0.02 0.03 0.03
0.00 0.00 0.00 0.00 0.00 0.00 0.00 0.00 0.00 0.00 0.00 0.01 0.00 0.06 0.08 0.14 0.01 0.07 0.08 0.00 0.03 0.01 0.00 0.00 0.01 0.02 0.06 0.10 0.05 0.10 0.30 0.57 0.36 0.25 0.21 0.16 0.16 0.21 0.17 0.20 0.08 0.04 0.04 0.01 0.03 0.01 0.01 0.01 0.04 0.00 0.01 0.00 0.00 0.00 0.00 0.00 0.00 0.00 0.00 0.00 0.00 0.00 0.00 0.00 0.00 0.00 0.00 0.00 0.00 0.00 0.00 0.00 0.00 0.00 0.01 0.00 0.00 0.00 0.00 0.00 0.00 0.01 0.01 0.05 0.01 0.01 0.03 0.01 0.05 0.02 0.04 0.11 0.09 0.02 0.01 0.02 0.03
0.00 0.00 0.00 0.00 0.00 0.00 0.00 0.00 0.00 0.00 0.00 0.00 0.00 0.02 0.01 0.00 0.04 0.15 0.21 0.17 0.17 0.06 0.01 0.01 0.01 0.00 0.00 0.01 0.07 0.04 0.15 0.16 0.31 0.23 0.30 0.17 0.14 0.34 0.38 0.14 0.10 0.12 0.03 0.02 0.02 0.03 0.03 0.05 0.06 0.03 0.04 0.02 0.00 0.00 0.00 0.00 0.00 0.00 0.00 0.00 0.00 0.00 0.00 0.00 0.00 0.00 0.00 0.00 0.00 0.00 0.02 0.01 0.00 0.00 0.00 0.00 0.01 0.00 0.00 0.00 0.00 0.00 0.00 0.01 0.01 0.01 0.04 0.02 0.05 0.05 0.03 0.04 0.01 0.01 0.03 0.02 0.04
0.00 0.00 0.00 0.00 0.00 0.00 0.00 0.00 0.00 0.00 0.00 0.00 0.00 0.04 0.01 0.07 0.17 0.52 0.29 0.05 0.10 0.23 0.00 0.00 0.00 0.01 0.02 0.01 0.01 0.02 0.03 0.18 0.39 0.47 0.25 0.37 0.42 0.33 0.43 0.28 0.37 0.39 0.16 0.17 0.05 0.09 0.16 0.06 0.17 0.04 0.03 0.06 0.06 0.01 0.00 0.00 0.00 0.00 0.00 0.00 0.00 0.00 0.00 0.00 0.00 0.00 0.00 0.00 0.00 0.00 0.01 0.00 0.00 0.00 0.00 0.01 0.00 0.00 0.00 0.00 0.00 0.00 0.00 0.00 0.00 0.01 0.00 0.01 0.03 0.06 0.02 0.03 0.03 0.03 0.04 0.03 0.06
0.00 0.00 0.00 0.00 0.00 0.00 0.00 0.00 0.00 0.00 0.00 0.03 0.00 0.04 0.03 0.02 0.03 0.02 0.02 0.06 0.04 0.02 0.01 0.01 0.01 0.00 0.01 0.00 0.02 0.02 0.02 0.08 0.16 0.26 0.47 0.22 0.21 0.30 0.58 0.61 1.07 1.33 0.80 0.16 0.23 0.32 0.13 0.10 0.15 0.07 0.06 0.05 0.03 0.02 0.00 0.00 0.00 0.00 0.00 0.00 0.00 0.00 0.00 0.00 0.00 0.00 0.00 0.00 0.00 0.00 0.00 0.00 0.00 0.00 0.00 0.00 0.00 0.00 0.00 0.00 0.00 0.00 0.00 0.00 0.00 0.00 0.00 0.00 0.01 0.01 0.01 0.05 0.04 0.02 0.01 0.03 0.03
0.00 0.00 0.00 0.00 0.00 0.00 0.00 0.00 0.01 0.00 0.00 0.00 0.30 0.37 0.26 0.06 0.15 0.25 0.07 0.21 0.17 0.19 0.02 0.00 0.00 0.01 0.00 0.00 0.00 0.02 0.06 0.19 0.12 0.15 0.30 0.36 0.60 0.70 0.80 0.78 1.61 1.48 1.00 0.60 0.58 0.32 0.25 0.35 0.16 0.22 0.75 0.59 0.14 0.05 0.01 0.00 0.00 0.00 0.00 0.00 0.00 0.00 0.00 0.00 0.00 0.00 0.00 0.00 0.00 0.00 0.00 0.00 0.00 0.00 0.00 0.00 0.00 0.00 0.00 0.00 0.00 0.00 0.00 0.00 0.00 0.00 0.00 0.00 0.00 0.00 0.00 0.01 0.02 0.00 0.01 0.03 0.02
0.00 0.00 0.00 0.00 0.00 0.00 0.00 0.00 0.00 0.01 0.02 0.00 0.04 0.10 0.22 0.26 0.61 0.47 0.53 0.84 0.41 0.55 0.03 0.00 0.00 0.00 0.00 0.00 0.01 0.01 0.04 0.03 0.07 0.12 0.16 0.38 0.52 0.68 0.87 1.41 2.35 1.66 1.00 1.08 0.90 0.93 1.10 1.21 0.57 0.71 1.61 0.96 0.50 0.34 0.16 0.05 0.00 0.00 0.00 0.00 0.00 0.00 0.00 0.00 0.00 0.00 0.00 0.00 0.00 0.00 0.00 0.00 0.00 0.00 0.00 0.00 0.00 0.00 0.00 0.00 0.01 0.00 0.00 0.00 0.00 0.00 0.00 0.00 0.00 0.01 0.00 0.00 0.00 0.01 0.00 0.00 0.01
0.00 0.00 0.00 0.00 0.00 0.00 0.00 0.00 0.00 0.00 0.00 0.00 0.02 0.07 0.04 0.14 0.12 0.28 0.89 0.32 0.41 0.44 0.00 0.00 0.00 0.00 0.00 0.00 0.00 0.00 0.00 0.00 0.01 0.01 0.02 0.22 0.49 0.35 0.46 0.73 0.51 1.34 0.71 0.83 1.33 1.61 1.79 1.39 1.41 1.56 1.87 1.01 0.95 0.45 0.40 0.43 0.11 0.01 0.00 0.00 0.00 0.00 0.00 0.00 0.00 0.00 0.00 0.00 0.00 0.01 0.00 0.00 0.00 0.00 0.00 0.00 0.00 0.00 0.00 0.00 0.00 0.00 0.01 0.03 0.00 0.00 0.00 0.01 0.01 0.00 0.00 0.00 0.00 0.00 0.01 0.00 0.00